Location: Newark
(55.8871°S, 37.4681°W)
Time: 19:38:06
(UTC+00:00)

N. Korean satellite - Pass Details

Date: 15 October 2019
Orbit: 456 x 506 km, 97.2° (Epoch: 10 November)

Event Time Altitude Azimuth Distance (km) Brightness Sun altitude
Rises 21:46:53 0° 174° (S) 2,633 10.5 -5.2°
Reaches altitude 10° 21:49:17 10° 188° (S) 1,732 9.8 -5.5°
Maximum altitude 21:52:17 24° 241° (WSW) 1,091 9.6 -5.9°
Drops below altitude 10° 21:55:13 10° 295° (WNW) 1,690 9.9 -6.2°
Sets 21:57:32 0° 309° (NW) 2,553 10.6 -6.5°
